When you browse on this site, cookies collect data to enhance your experience and personalize the content and advertising you see.
Visit our Privacy Policy to learn more. By continuing to use the site, you agree to this use of cookies and data.
  • In United Kingdom
  • List of Countries
  • For 7 days
  • Water Temperature
  • Satellite Maps
  • Weather Map
  • Weather Widgets
  • user-avatar
    Login

    Hourly Weather Rechytsa

    Today, 18 July, Thursday

    Time Temperature Precipitation Wind Pressure Humidity
    00:00 +13°C° 0 mm 2 mps 743 mmHg 95%
    01:00 +13°C° 0 mm 2 mps 743 mmHg 95%
    02:00 +13°C° 0 mm 2 mps 743 mmHg 96%
    03:00 +11°C° 0 mm 3 mps 743 mmHg 95%
    04:00 +11°C° 0 mm 3 mps 743 mmHg 95%
    05:00 +11°C° 0 mm 3 mps 743 mmHg 95%
    06:00 +12°C° 0 mm 3 mps 743 mmHg 92%
    07:00 +13°C° 0 mm 3 mps 743 mmHg 88%
    08:00 +15°C° 0 mm 4 mps 743 mmHg 85%
    09:00 +17°C° 0.3 mm 4 mps 743 mmHg 82%
    10:00 +18°C° 0.3 mm 4 mps 744 mmHg 79%
    11:00 +19°C° 0.3 mm 5 mps 744 mmHg 76%
    12:00 +19°C° 0.7 mm 5 mps 744 mmHg 76%
    13:00 +19°C° 0.7 mm 4 mps 744 mmHg 76%
    14:00 +19°C° 0.7 mm 4 mps 744 mmHg 76%
    15:00 +20°C° 0.3 mm 4 mps 744 mmHg 77%
    16:00 +20°C° 0.3 mm 4 mps 744 mmHg 77%
    17:00 +20°C° 0.3 mm 4 mps 744 mmHg 78%
    18:00 +19°C° 0.5 mm 4 mps 744 mmHg 83%
    19:00 +18°C° 0.5 mm 3 mps 745 mmHg 87%
    20:00 +16°C° 0.5 mm 3 mps 745 mmHg 92%
    21:00 +16°C° 0.1 mm 3 mps 745 mmHg 94%
    22:00 +14°C° 0.1 mm 3 mps 745 mmHg 95%
    23:00 +14°C° 0.1 mm 3 mps 746 mmHg 96%

    Tomorrow, 19 July, Friday

    Time Temperature Precipitation Wind Pressure Humidity
    00:00 +14°C° 0 mm 3 mps 746 mmHg 96%
    01:00 +13°C° 0 mm 3 mps 746 mmHg 97%
    02:00 +13°C° 0 mm 3 mps 746 mmHg 97%
    03:00 +13°C° 0 mm 3 mps 747 mmHg 97%
    04:00 +13°C° 0 mm 3 mps 747 mmHg 97%
    05:00 +13°C° 0 mm 3 mps 747 mmHg 98%
    06:00 +14°C° 0 mm 4 mps 747 mmHg 93%
    07:00 +17°C° 0 mm 4 mps 748 mmHg 89%
    08:00 +18°C° 0 mm 4 mps 748 mmHg 84%
    09:00 +20°C° 0 mm 4 mps 748 mmHg 76%
    10:00 +21°C° 0 mm 4 mps 749 mmHg 68%
    11:00 +23°C° 0 mm 4 mps 749 mmHg 60%
    12:00 +23°C° 0 mm 4 mps 749 mmHg 58%
    13:00 +25°C° 0 mm 4 mps 748 mmHg 56%
    14:00 +25°C° 0 mm 4 mps 748 mmHg 53%
    15:00 +25°C° 0.1 mm 4 mps 748 mmHg 56%
    16:00 +25°C° 0.1 mm 4 mps 748 mmHg 59%
    17:00 +23°C° 0.1 mm 4 mps 748 mmHg 61%
    18:00 +22°C° 0 mm 3 mps 749 mmHg 68%
    19:00 +20°C° 0 mm 3 mps 749 mmHg 74%
    20:00 +18°C° 0 mm 2 mps 749 mmHg 81%
    21:00 +17°C° 0 mm 2 mps 750 mmHg 84%
    22:00 +16°C° 0 mm 2 mps 750 mmHg 87%
    23:00 +16°C° 0 mm 2 mps 750 mmHg 91%

    Day after tomorrow, 20 July, Saturday

    Time Temperature Precipitation Wind Pressure Humidity
    00:00 +15°C° 0 mm 2 mps 750 mmHg 92%
    01:00 +15°C° 0 mm 2 mps 750 mmHg 93%
    02:00 +14°C° 0 mm 2 mps 750 mmHg 94%
    03:00 +14°C° 0 mm 2 mps 751 mmHg 94%
    04:00 +14°C° 0 mm 2 mps 751 mmHg 93%
    05:00 +14°C° 0 mm 2 mps 751 mmHg 93%
    06:00 +16°C° 0 mm 2 mps 751 mmHg 86%
    07:00 +18°C° 0 mm 2 mps 752 mmHg 80%
    08:00 +20°C° 0 mm 2 mps 752 mmHg 73%
    09:00 +21°C° 0 mm 2 mps 752 mmHg 66%
    10:00 +24°C° 0 mm 2 mps 752 mmHg 60%
    11:00 +25°C° 0 mm 2 mps 752 mmHg 54%
    12:00 +25°C° 0 mm 2 mps 752 mmHg 52%
    13:00 +26°C° 0 mm 2 mps 752 mmHg 50%
    14:00 +27°C° 0 mm 3 mps 752 mmHg 48%
    15:00 +26°C° 0 mm 2 mps 752 mmHg 50%
    16:00 +26°C° 0 mm 2 mps 752 mmHg 52%
    17:00 +26°C° 0 mm 2 mps 752 mmHg 54%
    18:00 +24°C° 0 mm 2 mps 752 mmHg 60%
    19:00 +22°C° 0 mm 1 mps 752 mmHg 67%
    20:00 +20°C° 0 mm 1 mps 752 mmHg 73%
    21:00 +19°C° 0 mm 1 mps 753 mmHg 75%
    22:00 +18°C° 0 mm 1 mps 753 mmHg 78%
    23:00 +18°C° 0 mm 1 mps 753 mmHg 80%

    21 July, Sunday

    Time Temperature Precipitation Wind Pressure Humidity
    00:00 +16°C° 0 mm 1 mps 753 mmHg 83%
    01:00 +16°C° 0 mm 1 mps 753 mmHg 86%
    02:00 +15°C° 0 mm 1 mps 753 mmHg 89%
    03:00 +15°C° 0 mm 1 mps 753 mmHg 89%
    04:00 +15°C° 0 mm 1 mps 753 mmHg 89%
    05:00 +15°C° 0 mm 1 mps 753 mmHg 89%
    06:00 +19°C° 0 mm 1 mps 753 mmHg 82%
    07:00 +21°C° 0 mm 1 mps 753 mmHg 75%
    08:00 +23°C° 0 mm 1 mps 754 mmHg 68%
    09:00 +24°C° 0 mm 1 mps 754 mmHg 63%
    10:00 +26°C° 0 mm 1 mps 754 mmHg 58%
    11:00 +27°C° 0 mm 1 mps 754 mmHg 52%
    12:00 +27°C° 0 mm 1 mps 753 mmHg 50%
    13:00 +28°C° 0 mm 1 mps 753 mmHg 48%
    14:00 +28°C° 0 mm 1 mps 753 mmHg 46%
    15:00 +28°C° 0 mm 1 mps 753 mmHg 48%
    16:00 +26°C° 0 mm 0 mps 753 mmHg 49%
    17:00 +25°C° 0 mm 0 mps 752 mmHg 51%
    18:00 +25°C° 0 mm 1 mps 752 mmHg 56%
    19:00 +24°C° 0 mm 1 mps 752 mmHg 62%
    20:00 +22°C° 0 mm 1 mps 752 mmHg 68%
    21:00 +21°C° 0 mm 1 mps 752 mmHg 69%
    22:00 +20°C° 0 mm 1 mps 752 mmHg 71%
    23:00 +19°C° 0 mm 2 mps 752 mmHg 72%

    22 July, Monday

    Time Temperature Precipitation Wind Pressure Humidity
    00:00 +18°C° 0 mm 2 mps 752 mmHg 73%
    01:00 +18°C° 0 mm 2 mps 752 mmHg 74%
    02:00 +18°C° 0 mm 2 mps 752 mmHg 75%
    03:00 +17°C° 0 mm 2 mps 751 mmHg 77%
    04:00 +17°C° 0 mm 2 mps 751 mmHg 78%
    05:00 +17°C° 0 mm 2 mps 751 mmHg 80%
    06:00 +18°C° 0.4 mm 2 mps 751 mmHg 83%
    07:00 +19°C° 0.4 mm 1 mps 751 mmHg 86%
    08:00 +19°C° 0.4 mm 1 mps 751 mmHg 89%
    09:00 +19°C° 0.7 mm 1 mps 751 mmHg 91%
    10:00 +18°C° 0.7 mm 2 mps 750 mmHg 93%
    11:00 +19°C° 0.7 mm 2 mps 750 mmHg 95%
    12:00 +20°C° 0.5 mm 2 mps 750 mmHg 89%
    13:00 +21°C° 0.5 mm 3 mps 750 mmHg 84%
    14:00 +24°C° 0.5 mm 3 mps 750 mmHg 78%
    15:00 +24°C° 0.9 mm 3 mps 749 mmHg 79%
    16:00 +24°C° 0.9 mm 3 mps 749 mmHg 80%
    17:00 +24°C° 0.9 mm 3 mps 749 mmHg 81%
    18:00 +21°C° 0.2 mm 3 mps 749 mmHg 84%
    19:00 +20°C° 0.2 mm 3 mps 749 mmHg 88%
    20:00 +19°C° 0.2 mm 3 mps 749 mmHg 92%
    21:00 +18°C° 0.2 mm 3 mps 749 mmHg 92%
    22:00 +18°C° 0.2 mm 2 mps 749 mmHg 93%
    23:00 +17°C° 0.2 mm 2 mps 749 mmHg 94%

    23 July, Tuesday

    Time Temperature Precipitation Wind Pressure Humidity
    00:00 +17°C° 0.1 mm 2 mps 749 mmHg 93%
    01:00 +17°C° 0.1 mm 2 mps 749 mmHg 92%
    02:00 +17°C° 0.1 mm 2 mps 749 mmHg 91%
    03:00 +17°C° 0 mm 2 mps 749 mmHg 91%
    04:00 +17°C° 0 mm 2 mps 749 mmHg 91%
    05:00 +16°C° 0 mm 2 mps 749 mmHg 91%
    06:00 +17°C° 0.1 mm 2 mps 749 mmHg 89%
    07:00 +18°C° 0.1 mm 2 mps 749 mmHg 87%
    08:00 +19°C° 0.1 mm 2 mps 750 mmHg 85%
    09:00 +20°C° 0.2 mm 3 mps 750 mmHg 79%
    10:00 +22°C° 0.2 mm 4 mps 750 mmHg 73%
    11:00 +23°C° 0.2 mm 5 mps 750 mmHg 67%
    12:00 +25°C° 0.1 mm 5 mps 750 mmHg 63%
    13:00 +26°C° 0.1 mm 5 mps 750 mmHg 59%
    14:00 +26°C° 0.1 mm 6 mps 750 mmHg 55%
    15:00 +26°C° 0.1 mm 5 mps 750 mmHg 59%
    16:00 +25°C° 0.1 mm 5 mps 750 mmHg 62%
    17:00 +25°C° 0.1 mm 4 mps 750 mmHg 65%
    18:00 +22°C° 0.1 mm 4 mps 750 mmHg 71%
    19:00 +21°C° 0.1 mm 4 mps 750 mmHg 77%
    20:00 +19°C° 0.1 mm 3 mps 750 mmHg 83%
    21:00 +18°C° 0 mm 3 mps 750 mmHg 84%
    22:00 +17°C° 0 mm 3 mps 750 mmHg 85%
    23:00 +16°C° 0 mm 3 mps 751 mmHg 86%
    Show more